This is the latest recevied weather packets stored in our database for station/object EA7OC-10. If no packets are shown the sender has not sent any weather packets the latest 10 day(s).
| Time | Temp. | Humidity | Pressure | Rain* | Wind** | Luminosity | Snow |
|---|---|---|---|---|---|---|---|
| 1777532677 | 26.11° C | 40% | 1017.9 hPa | - | - | - | - |
| 1777531777 | 24.44° C | 43% | 1017.7 hPa | - | - | - | - |
| 1777530876 | 21.67° C | 43% | 1017.6 hPa | - | - | - | - |
| 1777529976 | 18.33° C | 42% | 1017.5 hPa | - | - | - | - |
| 1777529076 | 15.56° C | 40% | 1017.5 hPa | - | - | - | - |
| 1777528176 | 14.44° C | 39% | 1017.2 hPa | - | - | - | - |
| 1777527276 | 14.44° C | 38% | 1017.2 hPa | - | - | - | - |
| 1777526376 | 14.44° C | 38% | 1017 hPa | - | - | - | - |
| 1777525476 | 14.44° C | 38% | 1017 hPa | - | - | - | - |
| 1777524576 | 14.44° C | 38% | 1016.8 hPa | - | - | - | - |
| 1777523676 | 14.44° C | 38% | 1016.6 hPa | - | - | - | - |
| 1777522776 | 14.44° C | 38% | 1016.4 hPa | - | - | - | - |
| 1777521875 | 14.44° C | 38% | 1016.3 hPa | - | - | - | - |
| 1777520975 | 14.44° C | 38% | 1016.3 hPa | - | - | - | - |
| 1777520075 | 15° C | 38% | 1016.3 hPa | - | - | - | - |
| 1777519175 | 15° C | 38% | 1016.2 hPa | - | - | - | - |
| 1777518275 | 15° C | 38% | 1016.2 hPa | - | - | - | - |
| 1777517375 | 15° C | 38% | 1016.2 hPa | - | - | - | - |
| 1777516475 | 14.44° C | 38% | 1016.1 hPa | - | - | - | - |
| 1777515575 | 15° C | 38% | 1016.1 hPa | - | - | - | - |
| 1777514675 | 15° C | 38% | 1016.1 hPa | - | - | - | - |
| 1777513775 | 15° C | 38% | 1016.1 hPa | - | - | - | - |
| 1777512875 | 15° C | 38% | 1016.1 hPa | - | - | - | - |
| 1777511974 | 15.56° C | 38% | 1016.2 hPa | - | - | - | - |
| 1777511074 | 15.56° C | 38% | 1016.2 hPa | - | - | - | - |
* Rain since midnight (hover to see other rain measurements)
** Current wind speed in m/s (hover to see current wind gust speed)